Regional Weather Roundup
Issued by NWS Sioux Falls, SD

Home | Current Version | Previous Version | Text Only | Print | Product List | Glossary Off
Versions: 1 2 3 4 5 6 7 8 9 10 11 12 13 14 15 16 17 18 19 20 21 22 23 24 25 26 27 28 29 30 31 32 33 34 35 36 37 38 39 40 41 42 43 44 45 46 47 48 49 50

000
ASUS43 KFSD 291810
RWRFSD

WEATHER ROUNDUP FOR SE SOUTH DAKOTA/SW MINNESOTA/NW IOWA
NATIONAL WEATHER SERVICE SIOUX FALLS SD
100 PM CDT MON JUN 29 2015

NOTE: "FAIR" INDICATES FEW OR NO CLOUDS BELOW 12,000 FEET WITH NO
SIGNIFICANT WEATHER AND OR OBSTRUCTIONS TO VISIBILITY.


SDZ038>040-050-052>070-291900-
SOUTHEAST SOUTH DAKOTA

CITY           SKY/WX    TMP DP  RH WIND       PRES   REMARKS
BROOKINGS      SUNNY     77  61  57 NW12      29.95S
CHAMBERLAIN    SUNNY     85  58  39 NW9       29.98F
6HR MIN TEMP:  57; 6HR MAX TEMP:  85;

HURON          SUNNY     82  59  45 NW12      29.94F
6HR MIN TEMP:  60; 6HR MAX TEMP:  82;

MADISON        FAIR      77  59  53 NW15G21   29.96S
MITCHELL       SUNNY     83  60  45 NW10      29.96S HAZE
6HR MIN TEMP:  62; 6HR MAX TEMP:  84;

SIOUX FALLS    CLOUDY    81  60  48 NW12      29.94S
6HR MIN TEMP:  64; 6HR MAX TEMP:  82;

WINNER         FAIR      87  50  27 N10       30.01F
YANKTON        SUNNY     82  59  44 NW14      29.94F
$$

MNZ071-072-080-081-089-090-097-098-291900-
SOUTHWEST MINNESOTA

CITY           SKY/WX    TMP DP  RH WIND       PRES   REMARKS
FAIRMONT       SUNNY     79  61  53 NW12      29.89F
JACKSON        SUNNY     79  63  57 NW14      29.92S
LUVERNE        SUNNY     81  59  47 NW10      29.94F
MARSHALL       SUNNY     79  61  53 NW15      29.90S
6HR MIN TEMP:  63; 6HR MAX TEMP:  79;

MONTEVIDEO     SUNNY     79  66  65 N5        29.89F
PIPESTONE      SUNNY     79  61  53 NW12      29.94F
REDWOOD FALLS  SUNNY     77  65  66 NW10      29.88S
TRACY          SUNNY     80  64  57 NW9       29.91S
WINDOM         SUNNY     79  63  57 NW10G17   29.91S
WORTHINGTON    SUNNY     79  61  53 NW16      29.93S
$$

IAZ001>003-012>014-020>022-031-032-NEZ013-014-SDZ071-291900-
NORTHWEST IOWA

CITY           SKY/WX    TMP DP  RH WIND       PRES   REMARKS
CHEROKEE       SUNNY     79  65  63 NW5       29.94S
DENISON        SUNNY     79  64  61 NW8G18    29.93R
ESTHERVILLE    SUNNY     78  62  57 NW13      29.91S
LE MARS        SUNNY     81  63  54 NW7       29.95S
ORANGE CITY    SUNNY     79  61  53 NW9       29.95S
SHELDON        SUNNY     81  64  57 NW15      29.93S
SIOUX CITY     SUNNY     83  62  49 N8        29.95S
6HR MIN TEMP:  64; 6HR MAX TEMP:  83;

SPENCER        SUNNY     82  62  50 NW12      29.92S
6HR MIN TEMP:  63; 6HR MAX TEMP:  82;

STORM LAKE     SUNNY     79  63  57 NW12      29.95S
$$

ABBREVIATIONS USED IN REMARKS
   TC - TEMPERATURE IN CELSIUS
  WCI - WIND CHILL INDEX
   HX - HEAT INDEX
  VSB - VISIBILITY



USA.gov is the U.S. government's official web portal to all federal, state and local government web resources and services.